Weather reports worldwide

Advertisment
Greenville, United States of America (72312): temperature & dewpoint: 30.05.2020 15:00:00 - 05.06.2020 15:00:00 (EDT)Greenville, United States of America (72312): wind speed & gusts: 30.05.2020 15:00:00 - 05.06.2020 15:00:00 (EDT)Greenville, United States of America (72312): wind direction: 30.05.2020 15:00:00 - 05.06.2020 15:00:00 (EDT)Greenville, United States of America (72312): reduced air pressure: 30.05.2020 15:00:00 - 05.06.2020 15:00:00 (EDT)Greenville, United States of America (72312): visibility: 30.05.2020 15:00:00 - 05.06.2020 15:00:00 (EDT)Greenville, United States of America (72312): precipitation: 30.05.2020 15:00:00 - 05.06.2020 15:00:00 (EDT)
Date & Time tt [°C] td [°C] ff [km/h] ff [kn] fx [km/h] fx [kn] dd ppp [hPa] vv [km] rr [mm]
05.06.2020 15:00:00 30,0 20,0 16 9 - - WSW 1012,2 16 -
05.06.2020 14:00:00 28,9 20,0 22 12 - - SSW 1013,4 16 0,0
05.06.2020 13:00:00 28,3 20,6 18 10 - - SW 1013,9 16 -
05.06.2020 12:00:00 26,7 20,6 15 8 - - SW 1014,8 16 -
05.06.2020 11:00:00 25,0 20,0 16 9 - - SW 1014,6 16 0,0
05.06.2020 10:00:00 22,8 20,0 15 8 - - WSW 1015,3 16 -
05.06.2020 09:00:00 22,2 20,0 16 9 - - SSW 1014,5 16 -
05.06.2020 08:00:00 21,1 19,4 16 9 - - SSW 1014,7 15 0,0
05.06.2020 07:00:00 20,6 19,4 9 5 - - SW 1014,4 16 -
05.06.2020 06:00:00 20,6 19,4 8 4 - - SW 1013,9 16 -
05.06.2020 05:00:00 20,6 18,9 11 6 - - SW 1013,6 16 0,0
05.06.2020 04:00:00 20,6 18,9 16 9 - - SSW 1013,7 16 -
05.06.2020 03:00:00 20,6 18,9 9 5 - - S 1013,8 16 -
05.06.2020 02:00:00 20,6 18,9 9 5 - - S 1014,2 16 -
05.06.2020 01:00:00 21,1 18,9 8 4 - - S 1014,5 16 -
05.06.2020 00:00:00 20,6 18,9 0 0 - - N 1015,0 16 -
04.06.2020 23:00:00 21,1 18,9 8 4 - - SW 1014,7 16 -
04.06.2020 22:00:00 21,7 18,9 5 3 - - SSE 1014,4 16 -
04.06.2020 21:00:00 21,7 20,0 5 3 - - SSE 1014,1 16 0,3
04.06.2020 20:00:00 21,1 19,4 15 8 - - S 1013,9 11 15,7
04.06.2020 19:00:00 20,6 18,9 26 14 52 28 SW 1013,4 2,4 14,2
04.06.2020 18:00:00 30,0 18,3 18 10 - - S 1011,8 16 -
04.06.2020 17:00:00 31,7 18,3 26 14 - - S 1011,5 16 0,0
04.06.2020 16:00:00 32,2 18,3 18 10 - - SSW 1011,8 16 -
04.06.2020 15:00:00 31,1 17,8 11 6 - - SSW 1012,3 16 -
04.06.2020 14:00:00 31,7 18,9 15 8 - - S 1013,1 16 0,0
04.06.2020 13:00:00 31,1 18,9 9 5 - - SW 1013,7 16 -
04.06.2020 12:00:00 30,6 20,0 9 5 - - S 1014,0 16 -
04.06.2020 11:00:00 28,3 20,0 0 0 - - N 1013,7 16 0,0
04.06.2020 10:00:00 27,2 20,6 11 6 - - SSW 1014,0 16 -
04.06.2020 09:00:00 25,0 20,0 9 5 - - SW 1014,1 16 -
04.06.2020 08:00:00 23,3 19,4 11 6 - - SW 1014,0 16 0,0
04.06.2020 07:00:00 21,1 18,9 8 4 - - SSW 1013,6 15 -
04.06.2020 06:00:00 20,6 18,3 0 0 - - N 1013,0 16 -
04.06.2020 05:00:00 21,1 18,9 13 7 - - SW 1012,7 16 0,0
04.06.2020 04:00:00 21,7 18,3 13 7 - - WSW 1012,6 16 -
04.06.2020 03:00:00 22,2 18,9 13 7 - - SW 1012,6 16 -
04.06.2020 02:00:00 22,8 18,9 16 9 - - SW 1013,1 16 0,0
04.06.2020 01:00:00 22,8 18,9 15 8 - - SW 1013,7 16 -
04.06.2020 00:00:00 23,9 19,4 15 8 - - SSW 1013,9 16 -
03.06.2020 23:00:00 24,4 20,0 16 9 - - SSW 1013,6 16 0,0
03.06.2020 22:00:00 25,0 19,4 11 6 - - SSW 1013,3 16 -
03.06.2020 21:00:00 26,1 19,4 11 6 - - SW 1012,7 16 -
03.06.2020 20:00:00 27,8 20,0 15 8 - - SW 1012,4 16 0,0
03.06.2020 19:00:00 29,4 20,0 21 11 - - SW 1012,0 16 -
03.06.2020 18:00:00 30,6 19,4 24 13 - - SSW 1012,0 16 -
03.06.2020 17:00:00 31,1 19,4 15 8 - - SSW 1012,2 16 0,0
03.06.2020 16:00:00 31,7 19,4 18 10 - - SSW 1012,5 16 -
03.06.2020 15:00:00 31,1 18,3 13 7 - - SW 1013,0 16 -
03.06.2020 14:00:00 31,1 18,3 18 10 - - SW 1013,6 16 0,0
03.06.2020 13:00:00 30,6 18,3 16 9 - - SSW 1014,3 16 -
03.06.2020 12:00:00 30,0 17,2 15 8 - - WSW 1015,2 16 -
03.06.2020 11:00:00 28,3 18,3 8 4 - - - 1015,7 16 0,0
03.06.2020 10:00:00 26,1 17,8 11 6 - - W 1016,4 16 -
03.06.2020 09:00:00 24,4 17,8 13 7 - - WSW 1016,4 16 -
03.06.2020 08:00:00 21,7 17,2 15 8 - - SW 1016,7 16 0,0
03.06.2020 07:00:00 18,9 16,7 13 7 - - SSW 1016,8 16 -
03.06.2020 06:00:00 18,3 15,6 9 5 - - SW 1016,6 16 -
03.06.2020 05:00:00 19,4 16,1 8 4 - - WSW 1016,5 16 0,0
03.06.2020 04:00:00 20,6 16,1 11 6 - - SW 1016,4 16 -
03.06.2020 03:00:00 21,1 16,1 9 5 - - WSW 1016,6 16 -
03.06.2020 02:00:00 21,7 16,1 13 7 - - WSW 1017,1 16 0,0
03.06.2020 01:00:00 21,7 16,7 13 7 - - SW 1017,7 16 -
03.06.2020 00:00:00 22,8 16,7 13 7 - - SW 1017,9 16 -
02.06.2020 23:00:00 22,2 16,7 11 6 - - SW 1018,2 16 0,0
02.06.2020 22:00:00 23,3 16,7 11 6 - - SSW 1018,1 16 -
02.06.2020 21:00:00 24,4 16,1 16 9 - - SW 1017,7 16 -
02.06.2020 20:00:00 26,1 16,1 18 10 - - SW 1017,5 16 0,0
02.06.2020 19:00:00 27,8 17,2 24 13 - - SSW 1017,4 16 -
02.06.2020 18:00:00 28,3 17,2 21 11 - - SW 1017,8 16 -
02.06.2020 17:00:00 28,3 16,7 21 11 - - SW 1018,3 16 0,0
02.06.2020 16:00:00 28,3 16,7 21 11 - - SW 1019,1 16 -
02.06.2020 15:00:00 28,3 17,2 24 13 - - SW 1019,7 16 -
02.06.2020 14:00:00 27,8 16,7 16 9 - - WSW 1020,8 16 0,0
02.06.2020 13:00:00 27,2 16,1 15 8 - - W 1021,5 16 -
02.06.2020 12:00:00 26,7 16,1 16 9 - - WSW 1022,2 16 -
02.06.2020 11:00:00 25,6 15,6 24 13 - - WSW 1022,7 16 0,0
02.06.2020 10:00:00 23,3 15,6 26 14 - - WSW 1023,2 16 -
02.06.2020 09:00:00 21,7 15,0 18 10 - - WSW 1023,0 16 -
02.06.2020 08:00:00 19,4 15,0 11 6 - - WSW 1022,7 16 0,0
02.06.2020 07:00:00 17,2 13,9 11 6 - - WSW 1022,5 16 -
02.06.2020 06:00:00 16,7 13,9 13 7 - - SW 1022,3 16 -
02.06.2020 05:00:00 16,1 13,9 9 5 - - SSW 1022,2 16 -
02.06.2020 04:00:00 16,1 13,3 0 0 - - N 1022,2 16 -
02.06.2020 03:00:00 17,8 13,9 0 0 - - N 1022,3 16 -
02.06.2020 02:00:00 17,2 14,4 0 0 - - N 1022,6 16 0,0
02.06.2020 01:00:00 16,7 12,8 0 0 - - N 1022,8 16 -
02.06.2020 00:00:00 16,7 13,3 0 0 - - N 1023,1 16 -
01.06.2020 23:00:00 17,8 13,3 0 0 - - N 1023,2 16 0,0
01.06.2020 22:00:00 18,9 13,9 0 0 - - N 1022,8 16 -
01.06.2020 21:00:00 21,7 12,2 8 4 - - S 1022,5 16 -
01.06.2020 20:00:00 23,9 11,1 11 6 - - SSE 1022,2 16 0,0
01.06.2020 19:00:00 25,0 10,6 11 6 - - SSE 1022,0 16 -
01.06.2020 18:00:00 25,6 10,0 11 6 - - SSE 1022,4 16 -
01.06.2020 17:00:00 25,6 10,0 9 5 - - SE 1023,1 16 0,0
01.06.2020 16:00:00 25,0 9,4 0 0 - - N 1023,4 16 -
01.06.2020 15:00:00 24,4 9,4 9 5 - - N 1023,9 16 -
01.06.2020 14:00:00 23,9 8,9 13 7 - - E 1024,9 16 0,0
01.06.2020 13:00:00 22,8 8,3 5 3 - - E 1025,3 16 -
01.06.2020 12:00:00 22,2 7,8 16 9 - - E 1025,3 16 -
01.06.2020 11:00:00 21,1 7,8 15 8 - - ENE 1025,4 16 0,0
01.06.2020 10:00:00 19,4 7,2 21 11 - - NE 1025,7 16 -
01.06.2020 09:00:00 17,8 8,3 21 11 - - NE 1025,4 16 -
01.06.2020 08:00:00 15,6 10,0 9 5 - - NE 1024,8 16 0,0
01.06.2020 07:00:00 13,3 10,0 5 3 - - N 1023,9 16 -
01.06.2020 06:00:00 12,8 9,4 8 4 - - NNE 1022,9 16 -
01.06.2020 05:00:00 13,3 9,4 5 3 - - N 1022,5 16 0,0
01.06.2020 04:00:00 15,6 10,0 11 6 - - NNE 1021,8 16 -
01.06.2020 03:00:00 16,7 10,6 8 4 - - N 1021,7 16 -
01.06.2020 02:00:00 17,2 12,2 9 5 - - NNE 1021,3 16 0,0
01.06.2020 01:00:00 19,4 13,9 5 3 - - N 1021,1 16 -
01.06.2020 00:00:00 21,1 14,4 8 4 - - NNE 1020,5 16 -
31.05.2020 23:00:00 21,1 16,1 8 4 - - N 1020,1 16 0,0
31.05.2020 22:00:00 21,1 16,7 5 3 - - NNE 1019,4 16 -
31.05.2020 21:00:00 22,8 17,2 0 0 - - N 1018,6 16 -
31.05.2020 20:00:00 24,4 14,4 8 4 - - SE 1018,2 16 0,0
31.05.2020 19:00:00 25,6 14,4 8 4 - - E 1017,5 16 -
31.05.2020 18:00:00 26,7 14,4 11 6 - - SSE 1017,4 16 -
31.05.2020 17:00:00 26,1 14,4 9 5 - - E 1017,7 16 0,0
31.05.2020 16:00:00 26,7 13,9 0 0 - - N 1018,1 16 -
31.05.2020 15:00:00 25,6 13,9 13 7 - - E 1018,7 16 -
31.05.2020 14:00:00 25,0 14,4 13 7 - - NE 1019,0 16 0,0
31.05.2020 13:00:00 25,0 14,4 15 8 - - ENE 1019,5 16 -
31.05.2020 12:00:00 23,9 13,9 18 10 - - ENE 1019,7 16 -
31.05.2020 11:00:00 23,3 14,4 16 9 - - NE 1019,7 16 0,0
31.05.2020 10:00:00 22,8 14,4 16 9 - - ENE 1019,6 16 -
31.05.2020 09:00:00 21,7 14,4 13 7 - - NE 1018,7 16 -
31.05.2020 08:00:00 20,6 13,9 9 5 - - NNE 1017,7 16 0,0
31.05.2020 07:00:00 18,9 12,8 11 6 - - N 1017,0 16 -
31.05.2020 06:00:00 19,4 12,8 11 6 - - NNE 1016,2 16 -
31.05.2020 05:00:00 19,4 12,8 9 5 - - N 1015,9 16 0,0
31.05.2020 04:00:00 18,3 12,8 9 5 - - NNE 1015,5 16 -
31.05.2020 03:00:00 20,0 13,3 9 5 - - NE 1015,6 16 -
31.05.2020 02:00:00 21,7 13,3 0 0 - - N 1015,7 16 0,0
31.05.2020 01:00:00 21,1 12,8 8 4 - - N 1015,6 16 -
31.05.2020 00:00:00 22,2 12,8 9 5 - - N 1015,5 16 -
30.05.2020 23:00:00 21,1 15,0 5 3 - - N 1015,4 16 0,0
30.05.2020 22:00:00 23,9 14,4 8 4 - - N 1015,0 16 -
30.05.2020 21:00:00 24,4 15,6 8 4 - - N 1014,5 16 -
30.05.2020 20:00:00 26,7 16,1 5 3 - - NW 1013,8 16 0,0
30.05.2020 19:00:00 28,3 17,8 8 4 - - SW 1013,3 16 -
30.05.2020 18:00:00 29,4 17,2 8 4 - - SE 1013,1 16 -
30.05.2020 17:00:00 28,3 16,7 8 4 - - SSE 1013,4 16 0,0
30.05.2020 16:00:00 28,3 16,1 5 3 - - - 1013,6 16 -
30.05.2020 15:00:00 30,0 15,6 8 4 - - SE 1014,2 16 -

tt = temperature
td = dewpoint
ff = wind speed
fx = gusts
dd = wind direction
ppp = reduced air pressure
vv = visibility
rr = precipitation

Next stations